Weather History for Cheraw, SC

Change the Weather History Date:

Monday, February 11, 2013

  Actual Average (KFLO) Record (KFLO)
Temperature  
Mean Temperature 56 °F 48 °F  
Max Temperature 64 °F 59 °F 79 °F (1999)
Min Temperature 48 °F 37 °F 19 °F (1973)
Degree Days  
Heating Degree Days 9 17  
Month to date heating degree days 200  
Since 1 July heating degree days 1802  
Cooling Degree Days 0 0  
Month to date cooling degree days 0  
Year to date cooling degree days 2  
Growing Degree Days 6 (Base 50)    
Moisture  
Dew Point 58 °F    
Average Humidity 96    
Maximum Humidity 100    
Minimum Humidity 77    
Precipitation  
Precipitation 0.07 in 0.09 in 1.22 in (1981)
Month to date precipitation 1.11  
Year to date precipitation 4.34  
Sea Level Pressure  
Sea Level Pressure 30.06 in    
Wind  
Wind Speed 17 mph (SSW)    
Max Wind Speed 30 mph    
Max Gust Speed 48 mph    
Visibility 8 miles    
Events Rain    
T = Trace of Precipitation, MM = Missing Value Source: NWS Daily Summary

Daily Weather History Graph

Daily Weather History Graph

Search for Another Location

Airport:

Trip Planner

Search our weather history database for the weather conditions in past years. The results will help you decide how hot, cold, wet, or windy it might be!

Date:

Astronomy

Feb. 11, 2013 Rise Set
Actual Time 7:09 AM EST 5:59 PM EST
Civil Twilight 6:43 AM EST 6:25 PM EST
Nautical Twilight 6:13 AM EST 6:55 PM EST
Astronomical Twilight 5:44 AM EST 7:24 PM EST
Moon 7:38 AM EST (2/11) 7:47 PM EST (2/11)
Length of Visible Light 11h 42m
Length of Day
10h 50m
Waxing Crescent, 3% of the Moon is Illuminated
Feb 11
Waxing Crescent
Feb 17
First Quarter
Feb 25
Full
Mar 4
Last Quarter
Mar 11
New

Hourly Weather History & Observations

Time (EST) Temp. Dew Point Humidity Pressure Visibility Wind Dir Wind Speed Gust Speed Precip Events Conditions
12:15 AM 48.2 °F 48.2 °F 100% 30.22 in 5.0 mi SSE 12.7 mph 20.7 mph N/A Rain Light Rain
12:35 AM 50.0 °F 50.0 °F 100% 30.21 in 9.0 mi South 19.6 mph 27.6 mph N/A   Light Drizzle
12:55 AM 50.0 °F 50.0 °F 100% 30.20 in 5.0 mi South 17.3 mph 25.3 mph 0.01 in Rain Light Rain
1:15 AM 50.0 °F 50.0 °F 100% 30.19 in 5.0 mi South 16.1 mph 25.3 mph N/A Rain Light Rain
1:35 AM 51.8 °F 51.8 °F 100% 30.18 in 7.0 mi South 15.0 mph 20.7 mph 0.01 in Rain Light Rain
1:55 AM 51.8 °F 51.8 °F 100% 30.17 in 7.0 mi South 19.6 mph 25.3 mph 0.01 in Rain Light Rain
2:15 AM 51.8 °F 51.8 °F 100% 30.15 in 10.0 mi South 23.0 mph 29.9 mph N/A   Mostly Cloudy
2:35 AM 51.8 °F 51.8 °F 100% 30.15 in 10.0 mi SSW 13.8 mph 26.5 mph N/A   Overcast
2:55 AM 53.6 °F 53.6 °F 100% 30.14 in 10.0 mi South 15.0 mph 20.7 mph N/A   Light Drizzle
3:15 AM 53.6 °F 53.6 °F 100% 30.14 in 9.0 mi South 13.8 mph 24.2 mph N/A Rain Light Rain
3:35 AM 55.4 °F 55.4 °F 100% 30.12 in 5.0 mi South 12.7 mph 25.3 mph N/A Rain Light Rain
3:55 AM 55.4 °F 55.4 °F 100% 30.11 in 8.0 mi South 20.7 mph 33.4 mph N/A   Light Drizzle
4:15 AM 55.4 °F 55.4 °F 100% 30.11 in 10.0 mi SSW 16.1 mph 31.1 mph N/A   Overcast
4:35 AM 55.4 °F 55.4 °F 100% 30.11 in 3.0 mi SSW 17.3 mph 24.2 mph N/A Rain Light Rain
4:55 AM 55.4 °F 55.4 °F 100% 30.10 in 3.0 mi South 17.3 mph 32.2 mph N/A Rain Light Rain
5:15 AM 55.4 °F 55.4 °F 100% 30.09 in 7.0 mi South 19.6 mph 32.2 mph N/A Rain Light Rain
5:35 AM 57.2 °F 57.2 °F 100% 30.09 in 8.0 mi South 18.4 mph 31.1 mph N/A Rain Light Rain
5:55 AM 57.2 °F 57.2 °F 100% 30.11 in 7.0 mi SSW 20.7 mph 28.8 mph N/A Rain Light Rain
6:15 AM 57.2 °F 57.2 °F 100% 30.11 in 4.0 mi SSW 24.2 mph 36.8 mph 0.01 in Rain Rain
6:35 AM 57.2 °F 57.2 °F 100% 30.11 in 5.0 mi South 17.3 mph 20.7 mph 0.03 in Rain Light Rain
6:55 AM 57.2 °F 57.2 °F 100% 30.10 in 5.0 mi South 13.8 mph 24.2 mph 0.04 in Rain Light Rain
7:15 AM 57.2 °F 57.2 °F 100% 30.10 in 5.0 mi SSW 20.7 mph 27.6 mph N/A Rain Light Rain
7:35 AM 57.2 °F 57.2 °F 100% 30.10 in 5.0 mi SSW 15.0 mph 27.6 mph N/A   Light Drizzle
7:55 AM 57.2 °F 57.2 °F 100% 30.10 in 7.0 mi SSW 16.1 mph 25.3 mph N/A Rain Light Rain
8:15 AM 57.2 °F 57.2 °F 100% 30.10 in 3.0 mi SSW 12.7 mph 20.7 mph N/A Rain Light Rain
8:35 AM 59.0 °F 59.0 °F 100% 30.10 in 8.0 mi SSW 13.8 mph 23.0 mph N/A Rain Light Rain
8:55 AM 59.0 °F 59.0 °F 100% 30.10 in 8.0 mi SSW 17.3 mph 29.9 mph 0.01 in   Light Drizzle
9:15 AM 59.0 °F 59.0 °F 100% 30.10 in 10.0 mi SSW 16.1 mph 33.4 mph N/A   Overcast
9:35 AM 59.0 °F 59.0 °F 100% 30.10 in 10.0 mi SSW 15.0 mph 25.3 mph N/A   Overcast
9:55 AM 60.8 °F 60.8 °F 100% 30.10 in 7.0 mi SSW 13.8 mph 23.0 mph N/A Rain Rain
10:15 AM 60.8 °F 60.8 °F 100% 30.09 in 10.0 mi SSW 18.4 mph 28.8 mph N/A   Overcast
10:35 AM 60.8 °F 60.8 °F 100% 30.08 in 7.0 mi SSW 21.9 mph 34.5 mph N/A Rain Light Rain
10:55 AM 60.8 °F 60.8 °F 100% 30.07 in 7.0 mi SW 15.0 mph 26.5 mph N/A Rain Light Rain
11:15 AM 60.8 °F 60.8 °F 100% 30.04 in 9.0 mi South 24.2 mph 35.7 mph N/A   Light Drizzle
11:35 AM 60.8 °F 60.8 °F 100% 30.06 in 10.0 mi West 13.8 mph 24.2 mph N/A   Overcast
11:55 AM 60.8 °F 60.8 °F 100% 30.06 in 10.0 mi SW 15.0 mph 27.6 mph N/A   Overcast
12:15 PM 60.8 °F 60.8 °F 100% 30.06 in 10.0 mi SW 17.3 mph 28.8 mph N/A   Overcast
12:35 PM 62.6 °F 60.8 °F 94% 30.06 in 10.0 mi SW 25.3 mph 35.7 mph N/A   Overcast
12:55 PM 62.6 °F 60.8 °F 94% 30.05 in 10.0 mi SW 23.0 mph 39.1 mph N/A   Overcast
1:15 PM 62.6 °F 62.6 °F 100% 30.04 in 10.0 mi SW 19.6 mph 32.2 mph N/A   Overcast
1:35 PM 62.6 °F 60.8 °F 94% 30.02 in 10.0 mi SW 21.9 mph 33.4 mph N/A   Overcast
1:55 PM 62.6 °F 60.8 °F 94% 30.02 in 10.0 mi SW 19.6 mph 32.2 mph N/A   Overcast
2:15 PM 64.4 °F 60.8 °F 88% 30.01 in 10.0 mi SSW 19.6 mph 29.9 mph N/A   Overcast
2:35 PM 64.4 °F 60.8 °F 88% 30.00 in 10.0 mi SW 21.9 mph 29.9 mph N/A   Mostly Cloudy
2:55 PM 64.4 °F 60.8 °F 88% 30.00 in 10.0 mi SW 18.4 mph 26.5 mph N/A   Overcast
3:15 PM 64.4 °F 60.8 °F 88% 30.01 in 10.0 mi WSW 13.8 mph 31.1 mph N/A   Overcast
3:35 PM 64.4 °F 62.6 °F 94% 30.01 in 10.0 mi West 8.1 mph 20.7 mph N/A   Overcast
3:55 PM 64.4 °F 62.6 °F 94% 30.00 in 10.0 mi SSW 8.1 mph - N/A   Scattered Clouds
4:15 PM 64.4 °F 62.6 °F 94% 30.00 in 10.0 mi SW 12.7 mph - N/A   Clear
4:35 PM 64.4 °F 62.6 °F 94% 30.01 in 9.0 mi WSW 10.4 mph 18.4 mph N/A Rain Light Rain
4:55 PM 62.6 °F 62.6 °F 100% 30.01 in 8.0 mi SSW 12.7 mph 18.4 mph N/A Rain Light Rain
5:55 PM 62.6 °F 62.6 °F 100% 30.00 in 10.0 mi SSW 19.6 mph 29.9 mph N/A   Partly Cloudy
6:15 PM 62.6 °F 62.6 °F 100% 29.96 in 6.0 mi South 28.8 mph 44.9 mph N/A Rain Light Rain
6:35 PM 62.6 °F 60.8 °F 94% 29.96 in 10.0 mi SSW 25.3 mph 42.6 mph N/A   Partly Cloudy
6:55 PM 62.6 °F 60.8 °F 94% 30.01 in 10.0 mi WSW 16.1 mph 28.8 mph N/A   Clear
7:15 PM 62.6 °F 60.8 °F 94% 30.01 in 10.0 mi WSW 15.0 mph 25.3 mph N/A   Clear
7:35 PM 60.8 °F 60.8 °F 100% 30.00 in 10.0 mi SW 13.8 mph 18.4 mph N/A   Clear
7:55 PM 60.8 °F 60.8 °F 100% 30.00 in 10.0 mi WSW 15.0 mph - N/A   Partly Cloudy
8:15 PM 60.8 °F 60.8 °F 100% 30.02 in 10.0 mi West 13.8 mph 29.9 mph N/A   Mostly Cloudy
8:35 PM 60.8 °F 55.4 °F 82% 30.03 in 10.0 mi West 29.9 mph 48.3 mph N/A   Overcast
8:55 PM 60.8 °F 55.4 °F 82% 30.01 in 10.0 mi WSW 27.6 mph 39.1 mph N/A   Scattered Clouds
9:15 PM 60.8 °F 53.6 °F 77% 30.01 in 10.0 mi WSW 21.9 mph 35.7 mph N/A   Clear
9:35 PM 60.8 °F 55.4 °F 82% 30.00 in 10.0 mi SW 20.7 mph 32.2 mph N/A   Clear
9:55 PM 59.0 °F 55.4 °F 88% 30.01 in 10.0 mi WSW 20.7 mph 29.9 mph N/A   Clear
10:15 PM 59.0 °F 55.4 °F 88% 30.01 in 10.0 mi WSW 17.3 mph 27.6 mph N/A   Clear
10:35 PM 57.2 °F 55.4 °F 94% 30.00 in 10.0 mi WSW 18.4 mph 21.9 mph N/A   Clear
10:55 PM 57.2 °F 55.4 °F 94% 30.01 in 10.0 mi WSW 15.0 mph 24.2 mph N/A   Clear
11:15 PM 57.2 °F 55.4 °F 94% 30.00 in 10.0 mi WSW 16.1 mph 26.5 mph N/A   Clear
11:35 PM 57.2 °F 55.4 °F 94% 29.99 in 10.0 mi SW 15.0 mph 21.9 mph N/A   Clear
11:55 PM 57.2 °F 55.4 °F 94% 30.01 in 10.0 mi WSW 18.4 mph - N/A   Clear